Location: Wildlife_Club
(35.6000°N, 81.4330°W)
Time: 08:29:09
(UTC-04:00)

Vanguard 2 Rocket - Pass Details

Date: 27 June 2019
Orbit: 554 x 3326 km, 32.9° (Epoch: 21 July)

Event Time Altitude Azimuth Distance (km) Brightness Sun altitude
Rises 03:40:50 0° 279° (W) 5,286 10.6 -23.3°
Reaches altitude 10° 03:44:07 10° 272° (W) 4,626 10.2 -22.9°
Maximum altitude 03:56:43 40° 209° (SSW) 3,724 9.4 -21.5°
Drops below altitude 10° 04:14:09 10° 149° (SSE) 6,271 11.0 -19.3°
Sets 04:19:37 0° 142° (SE) 7,285 11.4 -18.5°
